This is the latest recevied weather packets stored in our database for station/object OK1PMP-6. If no packets are shown the sender has not sent any weather packets the latest 10 day(s).
| Time | Temp. | Humidity | Pressure | Rain* | Wind** | Luminosity | Snow |
|---|---|---|---|---|---|---|---|
| 1778225010 | 9.44° C | 86% | 1021.5 hPa | 0 mm | - | 126 W/m² | - |
| 1778224103 | 9.44° C | 87% | 1021.2 hPa | 0 mm | - | 95 W/m² | - |
| 1778223204 | 9.44° C | 86% | 1021.2 hPa | 0 mm | - | 72 W/m² | - |
| 1778222302 | 9.44° C | 86% | 1020.9 hPa | 0 mm | - | 55 W/m² | - |
| 1778221396 | 9.44° C | 86% | 1020.8 hPa | 0 mm | - | 82 W/m² | - |
| 1778220483 | 8.89° C | 87% | 1020.7 hPa | 0 mm | - | 91 W/m² | - |
| 1778219581 | 8.89° C | 88% | 1020.5 hPa | 0 mm | - | 73 W/m² | - |
| 1778218683 | 8.89° C | 88% | 1020.5 hPa | 0 mm | - | 50 W/m² | - |
| 1778217779 | 8.89° C | 88% | 1020.5 hPa | 0 mm | - | 68 W/m² | - |
| 1778216882 | 8.33° C | 89% | - | - | - | - | - |
| 1778215631 | 8.33° C | 90% | 1019.9 hPa | 0 mm | - | 30 W/m² | - |
| 1778214699 | 8.33° C | 90% | 1019.9 hPa | 0 mm | - | 25 W/m² | - |
| 1778213799 | 8.33° C | 91% | 1020.1 hPa | 0 mm | - | 17 W/m² | - |
| 1778212906 | 7.78° C | 91% | 1019.7 hPa | 0 mm | - | 13 W/m² | - |
| 1778211988 | 7.78° C | 90% | 1019.7 hPa | 0 mm | - | 6 W/m² | - |
| 1778211085 | 7.78° C | 90% | 1019.6 hPa | 0 mm | - | 2 W/m² | - |
| 1778210175 | 7.78° C | 90% | 1019.7 hPa | 0 mm | - | 0 W/m² | - |
| 1778209770 | 7.78° C | 90% | 1019.6 hPa | 0 mm | - | 0 W/m² | - |
| 1778208368 | 7.78° C | 90% | 1019.7 hPa | 0 mm | - | 0 W/m² | - |
| 1778207470 | 7.78° C | 90% | 1019.6 hPa | 0 mm | - | 0 W/m² | - |
| 1778206558 | 8.33° C | 90% | 1019.4 hPa | 0 mm | - | 0 W/m² | - |
| 1778205655 | 8.33° C | 90% | 1019.6 hPa | 0 mm | - | 0 W/m² | - |
| 1778204755 | 8.33° C | 90% | 1019.7 hPa | 0 mm | - | 0 W/m² | - |
| 1778203854 | 8.33° C | 90% | 1019.6 hPa | 0 mm | - | 0 W/m² | - |
| 1778202943 | 8.33° C | 90% | 1019.5 hPa | 0 mm | - | 0 W/m² | - |
* Rain latest hour (hover to see other rain measurements)
** Current wind speed in m/s (hover to see current wind gust speed)